{"data":{"norad_id":58502,"intl_designator":"2023-189A","name":"2023-189A","alt_names":[],"object_type":"PAYLOAD","status":"ACTIVE","operator":null,"country":"PRC","launch_date":"2023-12-04","launch_site_code":"JSC","launch_vehicle":null,"mission":null,"orbit_class":"UNKNOWN","rcs_meters":null,"size_class":null,"mass_kg":null,"dimensions":null,"purposes":[],"wikipedia_slug":null,"has_3d_model":false,"image_url":null,"decayed_at":null,"tle_current":{"epoch":"2026-09-22T00:07:22.019808Z","epoch_age_seconds":114992,"freshness":"FRESH","line1":"1 58502U 23189A   26265.00511597  .00002691  00000+0  84183-4 0  9997","line2":"2 58502  97.4361 283.8896 0008843 274.0410  85.9822 15.34005638156053","mean_motion":15.34005638,"eccentricity":0.0008843,"inclination_deg":97.4361,"raan_deg":283.8896,"arg_perigee_deg":274.041,"mean_anomaly_deg":85.9822,"bstar":8.4183e-5,"rev_number":15605,"period_min":93.871884452618,"perigee_km":457.82522652217,"apogee_km":469.92601003886,"semimajor_km":6842.0126182805,"source":"CELESTRAK","updated_at":"2026-09-22T09:00:26.680578Z"}}}